• In Hungary
  • List of Countries
  • For 7 days
  • Water Temperature
  • Satellite Maps
  • Weather Map
  • News
  • Weather Widgets
  • user-avatar
    Login

    Hourly Weather Cangas

    Today, 20 June, Wednesday

    Time Temperature Precipitation Wind Pressure Humidity
    00:00 +22°C° 0 mm 1 mps 756 mmHg 81%
    01:00 +21°C° 0 mm 1 mps 756 mmHg 82%
    02:00 +21°C° 0 mm 1 mps 756 mmHg 84%
    03:00 +21°C° 0 mm 1 mps 756 mmHg 84%
    04:00 +22°C° 0 mm 1 mps 756 mmHg 83%
    05:00 +22°C° 0 mm 1 mps 756 mmHg 83%
    06:00 +25°C° 0 mm 1 mps 756 mmHg 73%
    07:00 +28°C° 0 mm 1 mps 756 mmHg 63%
    08:00 +29°C° 0 mm 0 mps 756 mmHg 53%
    09:00 +32°C° 0 mm 1 mps 756 mmHg 48%
    10:00 +34°C° 0 mm 1 mps 756 mmHg 43%
    11:00 +36°C° 0 mm 2 mps 756 mmHg 38%
    12:00 +36°C° 0 mm 2 mps 756 mmHg 39%
    13:00 +35°C° 0 mm 2 mps 756 mmHg 39%
    14:00 +35°C° 0 mm 3 mps 755 mmHg 39%
    15:00 +34°C° 0 mm 3 mps 755 mmHg 44%
    16:00 +33°C° 0 mm 3 mps 755 mmHg 48%
    17:00 +31°C° 0 mm 2 mps 755 mmHg 53%
    18:00 +29°C° 0.1 mm 2 mps 756 mmHg 62%
    19:00 +27°C° 0.1 mm 2 mps 756 mmHg 71%
    20:00 +24°C° 0.1 mm 2 mps 756 mmHg 81%
    21:00 +24°C° 0.1 mm 2 mps 757 mmHg 84%
    22:00 +23°C° 0.1 mm 2 mps 757 mmHg 87%
    23:00 +23°C° 0.1 mm 2 mps 757 mmHg 91%

    Tomorrow, 21 June, Thursday

    Time Temperature Precipitation Wind Pressure Humidity
    00:00 +23°C° 0 mm 2 mps 757 mmHg 91%
    01:00 +23°C° 0 mm 2 mps 756 mmHg 91%
    02:00 +23°C° 0 mm 2 mps 756 mmHg 91%
    03:00 +21°C° 0 mm 2 mps 756 mmHg 91%
    04:00 +21°C° 0 mm 2 mps 756 mmHg 91%
    05:00 +21°C° 0 mm 3 mps 756 mmHg 91%
    06:00 +24°C° 0 mm 3 mps 756 mmHg 83%
    07:00 +26°C° 0 mm 3 mps 756 mmHg 75%
    08:00 +28°C° 0 mm 3 mps 757 mmHg 66%
    09:00 +30°C° 0 mm 3 mps 756 mmHg 59%
    10:00 +33°C° 0 mm 3 mps 756 mmHg 52%
    11:00 +35°C° 0 mm 3 mps 756 mmHg 45%
    12:00 +35°C° 0 mm 4 mps 756 mmHg 44%
    13:00 +36°C° 0 mm 4 mps 756 mmHg 43%
    14:00 +36°C° 0 mm 4 mps 756 mmHg 42%
    15:00 +34°C° 0.5 mm 4 mps 756 mmHg 49%
    16:00 +32°C° 0.5 mm 4 mps 756 mmHg 57%
    17:00 +30°C° 0.5 mm 4 mps 755 mmHg 64%
    18:00 +28°C° 0.3 mm 4 mps 756 mmHg 72%
    19:00 +26°C° 0.3 mm 4 mps 756 mmHg 79%
    20:00 +23°C° 0.3 mm 4 mps 756 mmHg 87%
    21:00 +24°C° 0.5 mm 3 mps 756 mmHg 89%
    22:00 +23°C° 0.5 mm 2 mps 756 mmHg 91%
    23:00 +23°C° 0.5 mm 2 mps 756 mmHg 92%

    Day after tomorrow, 22 June, Friday

    Time Temperature Precipitation Wind Pressure Humidity
    00:00 +23°C° 0 mm 2 mps 756 mmHg 93%
    01:00 +21°C° 0 mm 2 mps 756 mmHg 93%
    02:00 +21°C° 0 mm 2 mps 756 mmHg 93%
    03:00 +21°C° 0.1 mm 2 mps 755 mmHg 93%
    04:00 +21°C° 0.1 mm 2 mps 755 mmHg 93%
    05:00 +21°C° 0.1 mm 3 mps 755 mmHg 93%
    06:00 +24°C° 0 mm 2 mps 755 mmHg 85%
    07:00 +26°C° 0 mm 2 mps 755 mmHg 77%
    08:00 +28°C° 0 mm 1 mps 755 mmHg 69%
    09:00 +30°C° 0 mm 1 mps 755 mmHg 61%
    10:00 +32°C° 0 mm 1 mps 755 mmHg 54%
    11:00 +35°C° 0 mm 2 mps 755 mmHg 46%
    12:00 +35°C° 0.1 mm 2 mps 755 mmHg 47%
    13:00 +35°C° 0.1 mm 2 mps 755 mmHg 47%
    14:00 +35°C° 0.1 mm 2 mps 754 mmHg 47%
    15:00 +34°C° 0.7 mm 2 mps 754 mmHg 55%
    16:00 +31°C° 0.7 mm 2 mps 754 mmHg 63%
    17:00 +29°C° 0.7 mm 2 mps 754 mmHg 71%
    18:00 +28°C° 1.2 mm 1 mps 754 mmHg 79%
    19:00 +26°C° 1.2 mm 1 mps 754 mmHg 86%
    20:00 +24°C° 1.2 mm 1 mps 755 mmHg 94%
    21:00 +23°C° 0.5 mm 1 mps 755 mmHg 94%
    22:00 +23°C° 0.5 mm 1 mps 755 mmHg 95%
    23:00 +22°C° 0.5 mm 1 mps 755 mmHg 96%

    23 June, Saturday

    Time Temperature Precipitation Wind Pressure Humidity
    00:00 +22°C° 0.4 mm 1 mps 755 mmHg 95%
    01:00 +22°C° 0.4 mm 1 mps 754 mmHg 95%
    02:00 +22°C° 0.4 mm 1 mps 754 mmHg 95%
    03:00 +22°C° 0.5 mm 1 mps 754 mmHg 94%
    04:00 +22°C° 0.5 mm 1 mps 754 mmHg 94%
    05:00 +22°C° 0.5 mm 1 mps 754 mmHg 93%
    06:00 +25°C° 0 mm 1 mps 754 mmHg 83%
    07:00 +27°C° 0 mm 1 mps 754 mmHg 73%
    08:00 +28°C° 0 mm 0 mps 754 mmHg 62%
    09:00 +31°C° 0 mm 1 mps 754 mmHg 57%
    10:00 +33°C° 0 mm 1 mps 754 mmHg 51%
    11:00 +36°C° 0 mm 2 mps 754 mmHg 46%
    12:00 +35°C° 0.1 mm 2 mps 754 mmHg 48%
    13:00 +35°C° 0.1 mm 2 mps 754 mmHg 51%
    14:00 +34°C° 0.1 mm 2 mps 754 mmHg 53%
    15:00 +32°C° 0.5 mm 2 mps 753 mmHg 60%
    16:00 +30°C° 0.5 mm 2 mps 753 mmHg 66%
    17:00 +29°C° 0.5 mm 2 mps 753 mmHg 72%
    18:00 +27°C° 0.3 mm 1 mps 754 mmHg 79%
    19:00 +26°C° 0.3 mm 1 mps 754 mmHg 85%
    20:00 +22°C° 0.3 mm 0 mps 754 mmHg 92%
    21:00 +21°C° 0.2 mm 0 mps 754 mmHg 93%
    22:00 +23°C° 0.2 mm 1 mps 754 mmHg 94%
    23:00 +23°C° 0.2 mm 1 mps 754 mmHg 95%

    24 June, Sunday

    Time Temperature Precipitation Wind Pressure Humidity
    00:00 +22°C° 0 mm 1 mps 754 mmHg 95%
    01:00 +22°C° 0 mm 1 mps 754 mmHg 96%
    02:00 +22°C° 0 mm 1 mps 753 mmHg 96%
    03:00 +22°C° 0 mm 1 mps 754 mmHg 95%
    04:00 +22°C° 0 mm 1 mps 754 mmHg 95%
    05:00 +22°C° 0 mm 1 mps 754 mmHg 94%
    06:00 +24°C° 0.1 mm 1 mps 754 mmHg 87%
    07:00 +26°C° 0.1 mm 1 mps 754 mmHg 80%
    08:00 +28°C° 0.1 mm 2 mps 754 mmHg 72%
    09:00 +29°C° 0.2 mm 2 mps 755 mmHg 67%
    10:00 +30°C° 0.2 mm 2 mps 755 mmHg 62%
    11:00 +31°C° 0.2 mm 2 mps 755 mmHg 57%
    12:00 +31°C° 0.1 mm 2 mps 755 mmHg 57%
    13:00 +31°C° 0.1 mm 2 mps 755 mmHg 58%
    14:00 +30°C° 0.1 mm 2 mps 755 mmHg 59%
    15:00 +29°C° 0.2 mm 2 mps 755 mmHg 64%
    16:00 +28°C° 0.2 mm 2 mps 755 mmHg 70%
    17:00 +26°C° 0.2 mm 2 mps 755 mmHg 76%
    18:00 +25°C° 0.2 mm 1 mps 755 mmHg 83%
    19:00 +23°C° 0.2 mm 1 mps 755 mmHg 89%
    20:00 +21°C° 0.2 mm 1 mps 756 mmHg 96%
    21:00 +21°C° 0 mm 1 mps 756 mmHg 97%
    22:00 +20°C° 0 mm 1 mps 756 mmHg 97%
    23:00 +18°C° 0 mm 0 mps 756 mmHg 97%

    25 June, Monday

    Time Temperature Precipitation Wind Pressure Humidity
    00:00 +18°C° 0 mm 0 mps 755 mmHg 97%
    01:00 +18°C° 0 mm 0 mps 755 mmHg 97%
    02:00 +18°C° 0 mm 0 mps 755 mmHg 97%
    03:00 +18°C° 0 mm 0 mps 755 mmHg 97%
    04:00 +18°C° 0 mm 0 mps 755 mmHg 97%
    05:00 +18°C° 0 mm 0 mps 755 mmHg 97%
    06:00 +19°C° 0 mm 0 mps 755 mmHg 92%
    07:00 +21°C° 0 mm 0 mps 756 mmHg 87%
    08:00 +24°C° 0 mm 1 mps 756 mmHg 83%
    09:00 +25°C° 0 mm 1 mps 756 mmHg 76%
    10:00 +26°C° 0 mm 2 mps 756 mmHg 70%
    11:00 +27°C° 0 mm 2 mps 756 mmHg 63%
    12:00 +27°C° 0 mm 2 mps 756 mmHg 60%
    13:00 +28°C° 0 mm 2 mps 756 mmHg 57%
    14:00 +28°C° 0 mm 3 mps 756 mmHg 53%
    15:00 +27°C° 0 mm 2 mps 756 mmHg 56%
    16:00 +26°C° 0 mm 2 mps 756 mmHg 59%
    17:00 +25°C° 0 mm 2 mps 756 mmHg 61%
    18:00 +23°C° 0 mm 2 mps 756 mmHg 71%
    19:00 +21°C° 0 mm 1 mps 757 mmHg 82%
    20:00 +18°C° 0 mm 1 mps 757 mmHg 92%
    21:00 +18°C° 0 mm 1 mps 757 mmHg 93%
    22:00 +16°C° 0 mm 1 mps 757 mmHg 94%
    23:00 +16°C° 0 mm 1 mps 757 mmHg 95%
    Show more